(184694) = 1999 TM160 = 2005 SL104

Discovered at Kitt Peak on 2005-09-25 by Spacewatch.

Orbit

Orbit type: Main Belt

Note: WebGL enabled browser required.

epoch2024-03-31.0
epoch JD2460400.5
perihelion date2022-10-05.62290
perihelion JD2459858.12290
argument of perihelion (°)193.08959
ascending node (°)197.03660
inclination (°)11.36288
eccentricity0.0746484
perihelion distance (AU)2.9336557
Tisserand w.r.t. Jupiter3.2
ΔV w.r.t. Earth (km/sec)11.2
semimajor axis (AU)3.1703146
mean anomaly (°)94.70036
mean daily motion (°/day)0.17460240
aphelion distance (AU)3.407
period (years)5.64
P-vector [x]0.86622267
P-vector [y]0.47434481
P-vector [z]0.15702002
Q-vector [x]-0.49631262
Q-vector [y]0.85313751
Q-vector [z]0.16071769
absolute magnitude15.46
phase slope0.15
uncertainty0
referenceMPEC 2024-E179
observations used489
oppositions18
arc length (days)8895
first opposition used1999
last opposition used2024
residual rms (arc-secs)0.74
perturbers coarse indicatorM-v
perturbers precise indicator003Ek
first observation date used1999-10-09.0
last observation date used2024-02-15.0
computer nameMPCLINUX
JD of orbit computation2456819.605007
perihelion JD uncertainty (days)2.0987E-04
argument of perihelion uncertainty (°)3.7572E-05
ascending node uncertainty (°)2.0376E-05
inclination uncertainty (°)7.9477E-06
eccentricity uncertainty 7.5096E-08
perihelion distance uncertainty (AU)2.3483E-07
Minimum Orbit Intersection Distances (in AU)
for orbit epoch: 2460400.5, reference: E2024-EA9
Mercury2.59892
Venus2.20928
Earth1.93931
Mars1.48928
Jupiter2.01316
Saturn6.04216
Uranus15.1036
Neptune26.8899

Observations

500 total observations over interval: 1999 10 09.20221 – 2024 02 15.336383
These data are available for download (format description).

Date (UT) J2000 RA J2000 Dec Magn Location Ref
1999 10 09.20221 23 19 05.42 +01 21 01.3 20.4   704 – Lincoln Laboratory ETS, New Mexico MPS 13858
1999 10 09.21766 23 19 05.04 +01 20 54.8 19.7   704 – Lincoln Laboratory ETS, New Mexico MPS 13858
1999 10 09.23309 23 19 04.54 +01 20 48.4 19.9   704 – Lincoln Laboratory ETS, New Mexico MPS 13858
1999 10 13.17277 23 17 20.08 +00 51 47.1 18.8   704 – Lincoln Laboratory ETS, New Mexico MPS 13858
1999 10 13.18846 23 17 19.67 +00 51 39.7 19.7   704 – Lincoln Laboratory ETS, New Mexico MPS 13858
1999 10 13.20416 23 17 19.25 +00 51 33.1 19.5   704 – Lincoln Laboratory ETS, New Mexico MPS 13858
1999 10 13.23558 23 17 18.40 +00 51 19.9 19.6   704 – Lincoln Laboratory ETS, New Mexico MPS 13858
1999 10 16.346250 23 16 07.543 +00 29 30.46 20.10 V 645 – Apache Point-Sloan Digital Sky Survey MPS 178537
1999 10 16.349722 23 16 07.462 +00 29 28.98 20.86   645 – Apache Point-Sloan Digital Sky Survey MPS 178537
2003 04 25.39250 15 34 15.21 -10 48 12.5 21.0 V 691 – Steward Observatory, Kitt Peak-Spacewatch MPS 178537
2003 04 25.42061 15 34 14.14 -10 48 03.7 21.0 V 691 – Steward Observatory, Kitt Peak-Spacewatch MPS 178537
2003 04 25.45016 15 34 13.01 -10 47 53.8 20.9 V 691 – Steward Observatory, Kitt Peak-Spacewatch MPS 178537
2003 05 02.43873 15 29 37.54 -10 09 55.5 20.9 V 291 – LPL/Spacewatch II MPS 178537
2003 05 02.44607 15 29 37.23 -10 09 52.7 21.0 V 291 – LPL/Spacewatch II MPS 178537
2003 05 02.45312 15 29 36.92 -10 09 50.6 21.3 V 291 – LPL/Spacewatch II MPS 178537
2003 05 28.21340 15 11 23.76 -08 07 16.3 21.1 V 691 – Steward Observatory, Kitt Peak-Spacewatch MPS 178537
2003 05 28.24022 15 11 22.69 -08 07 09.9 21.6 V 691 – Steward Observatory, Kitt Peak-Spacewatch MPS 178537
2003 05 28.26945 15 11 21.46 -08 07 03.7 21.1 V 691 – Steward Observatory, Kitt Peak-Spacewatch MPS 178537
2004 06 12.36165 20 23 26.84 -04 01 20.5 20.9 V 691 – Steward Observatory, Kitt Peak-Spacewatch MPS 178537
2004 06 12.38852 20 23 26.34 -04 01 16.9 20.9 V 691 – Steward Observatory, Kitt Peak-Spacewatch MPS 178537
2004 06 12.41592 20 23 25.88 -04 01 12.5 20.7 V 691 – Steward Observatory, Kitt Peak-Spacewatch MPS 178537
2005 09 25.35843 02 02 45.54 +10 54 02.4 20.0 V 691 – Steward Observatory, Kitt Peak-Spacewatch MPS 144251
2005 09 25.37576 02 02 45.06 +10 53 55.8 20.2 V 691 – Steward Observatory, Kitt Peak-Spacewatch MPS 144251
2005 09 25.39311 02 02 44.58 +10 53 49.2 20.0 V 691 – Steward Observatory, Kitt Peak-Spacewatch MPS 144251
2005 09 30.38375 02 00 19.22 +10 20 28.4 19.5 R 644 – Palomar Mountain/NEAT MPS 144251
2005 09 30.40570 02 00 18.49 +10 20 19.4 19.6 R 644 – Palomar Mountain/NEAT MPS 144251
2005 09 30.43030 02 00 17.66 +10 20 09.1 20.1 R 644 – Palomar Mountain/NEAT MPS 144251
2005 10 01.27219 01 59 50.87 +10 14 17.6 19.8   704 – Lincoln Laboratory ETS, New Mexico MPS 144251
2005 10 01.28278 01 59 50.48 +10 14 12.3 19.7   704 – Lincoln Laboratory ETS, New Mexico MPS 144251
2005 10 01.29339 01 59 50.15 +10 14 09.0 20.0   704 – Lincoln Laboratory ETS, New Mexico MPS 144251
2005 10 01.30395 01 59 49.79 +10 14 04.0 19.7   704 – Lincoln Laboratory ETS, New Mexico MPS 144251
2005 10 01.34746 01 59 48.34 +10 13 44.0 20.9 V 691 – Steward Observatory, Kitt Peak-Spacewatch MPS 144251
2005 10 01.36475 01 59 47.79 +10 13 38.0 20.5 V 691 – Steward Observatory, Kitt Peak-Spacewatch MPS 144251
2005 10 01.38220 01 59 47.13 +10 13 29.8 19.9 V 691 – Steward Observatory, Kitt Peak-Spacewatch MPS 144251
2005 10 01.42429 01 59 45.67 +10 13 11.8 19.5 V G96 – Mt. Lemmon Survey MPS 144251
2005 10 01.42666 01 59 45.60 +10 13 10.8 18.9 V G96 – Mt. Lemmon Survey MPS 144251
2005 10 01.42898 01 59 45.52 +10 13 09.7 19.5 V G96 – Mt. Lemmon Survey MPS 144251
2005 10 01.43134 01 59 45.42 +10 13 08.7 18.9 V G96 – Mt. Lemmon Survey MPS 144251
2005 10 05.25547 01 57 34.43 +09 45 32.2 19.2   704 – Lincoln Laboratory ETS, New Mexico MPS 144251
2005 10 05.27746 01 57 33.71 +09 45 24.7 20.1   704 – Lincoln Laboratory ETS, New Mexico MPS 144251
2005 10 05.28846 01 57 33.32 +09 45 19.5 19.4   704 – Lincoln Laboratory ETS, New Mexico MPS 144251
2005 10 05.29961 01 57 32.89 +09 45 14.5 19.5   704 – Lincoln Laboratory ETS, New Mexico MPS 144251
2005 10 07.30834 01 56 19.24 +09 30 15.1 19.7 V 703 – Catalina Sky Survey MPS 144251
2005 10 07.31660 01 56 18.92 +09 30 11.1 19.3 V 703 – Catalina Sky Survey MPS 144251
2005 10 07.32485 01 56 18.63 +09 30 07.7 18.9 V 703 – Catalina Sky Survey MPS 144251
2005 10 07.33322 01 56 18.27 +09 30 04.4 19.5 V 703 – Catalina Sky Survey MPS 144251
2005 10 22.12641 01 46 18.00 +07 35 13.4 19.6 V 691 – Steward Observatory, Kitt Peak-Spacewatch MPS 146173
2005 10 22.14187 01 46 17.34 +07 35 06.2 19.7 V 691 – Steward Observatory, Kitt Peak-Spacewatch MPS 146173
2005 10 22.15725 01 46 16.66 +07 34 58.9 19.5 V 691 – Steward Observatory, Kitt Peak-Spacewatch MPS 146173
2005 10 28.27038 01 42 02.01 +06 48 14.2 19.1 V 703 – Catalina Sky Survey MPS 146173
2005 10 28.27573 01 42 01.83 +06 48 11.3 19.3 V 703 – Catalina Sky Survey MPS 146173
2005 10 28.28108 01 42 01.54 +06 48 09.1 19.5 V 703 – Catalina Sky Survey MPS 146173
2005 10 28.28644 01 42 01.36 +06 48 06.3 19.3 V 703 – Catalina Sky Survey MPS 146173
2005 11 02.19331 01 38 46.39 +06 12 25.0 19.3   704 – Lincoln Laboratory ETS, New Mexico MPS 147562
2005 11 02.20900 01 38 45.74 +06 12 18.8 19.8   704 – Lincoln Laboratory ETS, New Mexico MPS 147562
2005 11 02.23300 01 38 44.78 +06 12 08.2 19.9   704 – Lincoln Laboratory ETS, New Mexico MPS 147562
2005 11 02.24513 01 38 44.25 +06 12 02.6 19.7   704 – Lincoln Laboratory ETS, New Mexico MPS 147562
2008 03 02.40209 12 49 11.05 -08 42 11.1 20.2 V 691 – Steward Observatory, Kitt Peak-Spacewatch MPS 240753
2008 03 02.41975 12 49 10.54 -08 42 06.9 20.6 V 691 – Steward Observatory, Kitt Peak-Spacewatch MPS 240753
2008 03 02.43739 12 49 10.04 -08 42 02.0 20.9 V 691 – Steward Observatory, Kitt Peak-Spacewatch MPS 240753
2008 03 06.33855 12 47 17.97 -08 22 30.6 21.0 V 691 – Steward Observatory, Kitt Peak-Spacewatch MPS 240753
2008 03 06.35719 12 47 17.42 -08 22 25.5 21.0 V 691 – Steward Observatory, Kitt Peak-Spacewatch MPS 240753
2008 03 06.37577 12 47 16.83 -08 22 18.7 20.9 V 691 – Steward Observatory, Kitt Peak-Spacewatch MPS 240753
2008 03 10.33138 12 45 10.09 -08 00 35.3 20.2 V 691 – Steward Observatory, Kitt Peak-Spacewatch MPS 242137
2008 03 10.34908 12 45 09.38 -08 00 29.6 20.5 V 691 – Steward Observatory, Kitt Peak-Spacewatch MPS 242137
2008 03 10.36678 12 45 08.74 -08 00 23.9 20.3 V 691 – Steward Observatory, Kitt Peak-Spacewatch MPS 242137
2008 03 27.26978 12 34 27.30 -06 11 09.8 19.9 V G96 – Mt. Lemmon Survey MPS 244033
2008 03 27.27760 12 34 26.94 -06 11 06.9 20.0 V G96 – Mt. Lemmon Survey MPS 244033
2008 03 27.28538 12 34 26.65 -06 11 03.4 20.1 V G96 – Mt. Lemmon Survey MPS 244033
2008 03 27.29328 12 34 26.32 -06 11 00.2 19.8 V G96 – Mt. Lemmon Survey MPS 244033
2008 04 04.25657 12 29 04.38 -05 14 47.7 20.3 V 703 – Catalina Sky Survey MPS 245761
2008 04 04.26330 12 29 04.23 -05 14 43.8 20.7 V 703 – Catalina Sky Survey MPS 245761
2008 04 04.27001 12 29 03.84 -05 14 40.7 19.8 V 703 – Catalina Sky Survey MPS 245761
2008 04 04.27669 12 29 03.66 -05 14 37.8 20.2 V 703 – Catalina Sky Survey MPS 245761
2008 04 26.27476 12 16 31.00 -02 50 45.5 20.7 V G96 – Mt. Lemmon Survey MPS 248889
2008 04 26.28047 12 16 30.86 -02 50 43.2 20.6 V G96 – Mt. Lemmon Survey MPS 248889
2008 04 26.28611 12 16 30.72 -02 50 41.8 20.8 V G96 – Mt. Lemmon Survey MPS 248889
2008 04 26.29177 12 16 30.57 -02 50 40.1 20.4 V G96 – Mt. Lemmon Survey MPS 248889
2009 06 01.41097 16 59 41.49 -09 10 19.0 19.8 V G96 – Mt. Lemmon Survey MPS 288580
2009 06 01.41720 16 59 41.24 -09 10 17.5 19.7 V G96 – Mt. Lemmon Survey MPS 288580
2009 06 01.42346 16 59 40.92 -09 10 16.5 20.2 V G96 – Mt. Lemmon Survey MPS 288580
2009 06 01.42972 16 59 40.59 -09 10 15.5 19.8 V G96 – Mt. Lemmon Survey MPS 288580
2010 05 23.444387 22 02 55.997 -00 29 08.52   C51 – WISE MPS 903353
2010 05 23.775082 22 03 08.940 -00 27 15.26   C51 – WISE MPS 903353
2010 05 23.841299 22 03 11.594 -00 26 49.85   C51 – WISE MPS 903353
2010 05 24.171994 22 03 24.559 -00 24 54.50   C51 – WISE MPS 903353
2010 05 24.436602 22 03 34.795 -00 23 19.10   C51 – WISE MPS 903353
